Location: Asheville, NC
(35.6000°N, 82.5500°W)
Time: 14:36:22
(UTC-04:00)

Vanguard 2 - Pass Details

Date: 16 December 2017
Orbit: 553 x 2939 km, 32.9° (Epoch: 20 April)

Event Time Altitude Azimuth Distance (km) Brightness Sun altitude
Rises 19:08:09 0° 275° (W) 3,419 12.1 -21.5°
Reaches altitude 10° 19:11:11 10° 266° (W) 2,218 11.0 -22.1°
Maximum altitude 19:15:34 34° 201° (SSW) 981 8.3 -23.0°
Enters shadow 19:16:52 28° 163° (SSE) 1,102 8.3 -23.2°
